Torna al catalogo

STARLINK-4550

AttivoComunicazioniVLEO
NORAD 53570·PAYLOAD·🇺🇸 United States

Lanciato Aug 19, 2022 da Cape Canaveral Space Force Station

Loading…

Prossimi Passaggi (prossime 24 ore)

TLE

AggiornatoSource: CelesTrak SupGP

Epoca: Sep 15, 2026, 01:55 UTC

1 53570C 22101AV  26258.08034722 -.00013806  00000+0 -41895-3 0  2582
2 53570  53.1562 269.2331 0001276  95.8437  30.1160 15.33554027    19

Traccia STARLINK-4550 in tempo reale con AllMySat

Download on the App Store